Regional Weather Roundup
Issued by NWS Cleveland, OH

Home | Current Version | Previous Version | Text Only | Print | Product List | Glossary Off
Versions: 1 2 3 4 5 6 7 8 9 10 11 12 13 14 15 16 17 18 19 20 21 22 23 24 25 26 27 28 29 30 31 32 33 34 35 36 37 38 39 40 41 42 43 44 45 46 47 48 49 50

007
ASUS41 KCLE 240600
RWRCLE
OHIO REGIONAL WEATHER ROUNDUP
NATIONAL WEATHER SERVICE WILMINGTON, OH
200 AM EDT TUE MAY 24 2016

NOTE: "FAIR" INDICATES FEW OR NO CLOUDS BELOW 12,000 FEET WITH NO
SIGNIFICANT WEATHER AND/OR OBSTRUCTIONS TO VISIBILITY.

OHZ001>008-015>018-024>027-034-035-043-044-240700-
   NORTHWEST OHIO

CITY           SKY/WX    TMP DP  RH WIND       PRES   REMARKS
DEFIANCE       FAIR      54  46  74 CALM      30.01S
FINDLAY        FAIR      58  46  64 SE6       30.02R
TOLEDO EXPRESS FAIR      53  49  86 CALM      30.02R
TOLEDO EXEC    FAIR      57  47  69 CALM      30.02S
LIMA           FAIR      55  47  74 S3        30.02S
$$

OHZ009>014-019>023-028>033-038-089-240700-
   NORTHEAST OHIO

CITY           SKY/WX    TMP DP  RH WIND       PRES   REMARKS
CLE-HOPKINS    FAIR      54  47  77 CALM      30.03F
CLE-LAKEFRONT  FAIR      60  49  66 SE8       30.00F
CUY CO. ARPT   NOT AVBL
LORAIN-ELYRIA  FAIR      52  46  80 SW3       30.03S
ASHTABULA      FAIR      47  45  93 CALM      30.02F
AKRON-CANTON   FAIR      55  46  71 CALM      30.03F
WOOSTER        NOT AVBL
MANSFIELD      FAIR      55  49  80 CALM      30.04S
YOUNGSTOWN     FAIR      50  47  89 CALM      30.02F
$$

OHZ042-051>053-060>062-070>072-077>081-240700-
  SOUTHWEST OHIO

CITY           SKY/WX    TMP DP  RH WIND       PRES   REMARKS
CINC-COVINGTON FAIR      59  50  72 CALM      30.03F
CINC-LUNKEN    FAIR      52  52 100 CALM      30.04F
HAMILTON       FAIR      52  51  97 CALM      30.04F
DAYTON         NOT AVBL
WRIGHT-PAT AFB NOT AVBL
DAYTON GENERAL FAIR      60  45  57 CALM      30.03F
WILMINGTON     FAIR      55  51  86 CALM      30.04F
$$

OHZ036-037-039>041-045>050-054>059-063>069-073>076-082>088-240700-
  CENTRAL AND SOUTHEAST OHIO

CITY           SKY/WX    TMP DP  RH WIND       PRES   REMARKS
COLUMBUS       FAIR      55  51  86 CALM      30.02F
OSU AIRPORT    FAIR      59  49  69 CALM      30.03S
BOLTON FIELD   NOT AVBL
RICKENBACK AFB NOT AVBL
NEWARK         FAIR      53  50  89 CALM      30.03S
MARION         FAIR      55  49  80 CALM      30.03F
LANCASTER      FAIR      52  50  93 CALM      30.03S
ZANESVILLE     FAIR      55  51  86 SW3       30.03S
NEW PHILLY     FAIR      55  51  86 CALM      30.03F
$$




USA.gov is the U.S. government's official web portal to all federal, state and local government web resources and services.